Station Historical Data
Daily Summary for February 7, 2018 Units:  English    Metric   Both
« Previous Day
Next Day »
Daily Weekly Monthly Yearly Custom
  High: Low: Average:
Temperature: TemperatureF °F 9.5 °F 19.9 °F
Dew Point: DewpointF °F 4.8 °F 15.4 °F
Humidity: Humidity% 77% 82%
Wind Speed: WindSpeedMPHmph 0.0mph 2.8mph
Wind Gust: WindSpeedGustMPHmph - -
Wind- - South
Pressure: PressureIn in 30.03 in -
Precipitation: 0.00 in    
Historical Graphs
 
 
Tabular Data for February 7, 2018
Time Temperature Dew Point Pressure Wind Wind Speed Wind Gust Humidity Rainfall Rate (Hourly)
TemperatureF °F DewpointF °F PressureIn in Calm     Humidity% HourlyPrecipIn in
00:04 13.8 °F 10.1 °F 30.49 in Calm     85% 0.00 in
00:09 13.7 °F 10.0 °F 30.49 in Calm   2.0 mph 85% 0.00 in
00:14 13.7 °F 10.0 °F 30.49 in Calm   2.0 mph 85% 0.00 in
00:19 13.7 °F 10.0 °F 30.48 in Calm     85% 0.00 in
00:24 13.7 °F 10.0 °F 30.48 in Calm   2.0 mph 85% 0.00 in
00:29 13.7 °F 10.0 °F 30.47 in Calm   2.0 mph 85% 0.00 in
00:34 13.8 °F 10.1 °F 30.47 in Calm     85% 0.00 in
00:39 13.8 °F 10.1 °F 30.47 in Calm     85% 0.00 in
00:44 13.9 °F 10.2 °F 30.47 in Calm     85% 0.00 in
00:49 14.0 °F 10.3 °F 30.47 in Calm     85% 0.00 in
00:54 14.0 °F 10.3 °F 30.46 in Calm     85% 0.00 in
00:59 14.1 °F 10.4 °F 30.46 in Calm     85% 0.00 in
01:04 14.1 °F 10.4 °F 30.45 in Calm     85% 0.00 in
01:09 14.1 °F 10.4 °F 30.45 in Calm     85% 0.00 in
01:14 14.1 °F 10.2 °F 30.45 in Calm   2.0 mph 84% 0.00 in
01:19 14.1 °F 10.4 °F 30.44 in Calm   2.0 mph 85% 0.00 in
01:24 14.1 °F 10.2 °F 30.44 in Calm   2.0 mph 84% 0.00 in
01:29 14.1 °F 10.2 °F 30.44 in Calm     84% 0.00 in
01:34 14.2 °F 10.3 °F 30.44 in Calm     84% 0.00 in
01:39 14.2 °F 10.3 °F 30.44 in Calm     84% 0.00 in
01:44 14.2 °F 10.3 °F 30.43 in Calm   3.0 mph 84% 0.00 in
01:49 14.2 °F 10.3 °F 30.43 in SW 2.0 mph 3.0 mph 84% 0.00 in
01:54 14.3 °F 10.4 °F 30.43 in Calm   2.0 mph 84% 0.00 in
01:59 14.4 °F 10.4 °F 30.43 in Calm     84% 0.00 in
02:04 14.6 °F 10.6 °F 30.43 in Calm     84% 0.00 in
02:09 14.7 °F 10.7 °F 30.43 in Calm   2.0 mph 84% 0.00 in
02:14 14.8 °F 10.6 °F 30.43 in SW 1.0 mph 4.0 mph 83% 0.00 in
02:19 15.0 °F 10.8 °F 30.42 in SSW 3.0 mph 5.0 mph 83% 0.00 in
02:24 15.2 °F 11.0 °F 30.42 in Calm   4.0 mph 83% 0.00 in
02:29 15.4 °F 11.2 °F 30.43 in South 2.0 mph 3.0 mph 83% 0.00 in
02:34 15.6 °F 11.1 °F 30.43 in Calm   3.0 mph 82% 0.00 in
02:39 15.9 °F 11.4 °F 30.43 in Calm     82% 0.00 in
02:44 16.1 °F 11.6 °F 30.43 in Calm     82% 0.00 in
02:49 16.3 °F 11.5 °F 30.43 in Calm   3.0 mph 81% 0.00 in
02:54 16.4 °F 11.6 °F 30.42 in South 1.0 mph 3.0 mph 81% 0.00 in
02:59 16.6 °F 11.8 °F 30.42 in South 2.0 mph 3.0 mph 81% 0.00 in
03:04 16.7 °F 11.6 °F 30.41 in SSE 2.0 mph 5.0 mph 80% 0.00 in
03:09 16.8 °F 11.7 °F 30.41 in SE 4.0 mph 4.0 mph 80% 0.00 in
03:14 17.0 °F 11.6 °F 30.40 in SE 1.0 mph 4.0 mph 79% 0.00 in
03:19 17.0 °F 11.6 °F 30.40 in SE 2.0 mph 5.0 mph 79% 0.00 in
03:24 17.1 °F 11.4 °F 30.39 in SE 2.0 mph 7.0 mph 78% 0.00 in
03:29 17.2 °F 11.5 °F 30.39 in ESE 3.0 mph 4.0 mph 78% 0.00 in
03:34 17.3 °F 11.3 °F 30.39 in ESE 2.0 mph 5.0 mph 77% 0.00 in
03:44 17.4 °F 11.4 °F 30.38 in Calm   4.0 mph 77% 0.00 in
03:49 17.5 °F 11.5 °F 30.38 in ESE 2.0 mph 5.0 mph 77% 0.00 in
03:54 17.6 °F 11.6 °F 30.38 in ESE 2.0 mph 5.0 mph 77% 0.00 in
03:59 17.8 °F 11.8 °F 30.37 in ESE 1.0 mph 4.0 mph 77% 0.00 in
04:04 17.9 °F 12.2 °F 30.38 in ESE 1.0 mph 4.0 mph 78% 0.00 in
04:09 18.0 °F 12.3 °F 30.37 in ESE 1.0 mph 4.0 mph 78% 0.00 in
04:14 18.2 °F 12.5 °F 30.37 in Calm   4.0 mph 78% 0.00 in
04:19 18.1 °F 12.7 °F 30.37 in ESE 4.0 mph 7.0 mph 79% 0.00 in
04:24 18.0 °F 12.9 °F 30.36 in ESE 1.0 mph 5.0 mph 80% 0.00 in
04:29 17.9 °F 12.8 °F 30.36 in ESE 2.0 mph 5.0 mph 80% 0.00 in
04:34 18.0 °F 13.2 °F 30.36 in Calm   4.0 mph 81% 0.00 in
04:39 17.9 °F 13.1 °F 30.36 in ESE 3.0 mph 5.0 mph 81% 0.00 in
04:44 18.0 °F 13.4 °F 30.36 in ESE 2.0 mph 5.0 mph 82% 0.00 in
04:49 18.0 °F 13.4 °F 30.36 in ESE 2.0 mph 4.0 mph 82% 0.00 in
04:54 18.0 °F 13.7 °F 30.36 in ESE 1.0 mph 3.0 mph 83% 0.00 in
04:59 18.2 °F 13.9 °F 30.35 in ESE 2.0 mph 4.0 mph 83% 0.00 in
05:04 18.2 °F 13.9 °F 30.35 in ESE 2.0 mph 5.0 mph 83% 0.00 in
05:09 18.4 °F 14.1 °F 30.35 in ESE 4.0 mph 5.0 mph 83% 0.00 in
05:14 18.5 °F 14.2 °F 30.35 in ESE 2.0 mph 7.0 mph 83% 0.00 in
05:19 18.5 °F 14.5 °F 30.34 in ESE 3.0 mph 5.0 mph 84% 0.00 in
05:24 18.7 °F 14.7 °F 30.33 in East 3.0 mph 7.0 mph 84% 0.00 in
05:29 18.8 °F 14.8 °F 30.32 in East 3.0 mph 7.0 mph 84% 0.00 in
05:34 18.8 °F 14.8 °F 30.30 in ENE 4.0 mph 8.0 mph 84% 0.00 in
05:39 18.9 °F 14.9 °F 30.29 in NE 5.0 mph 7.0 mph 84% 0.00 in
05:44 18.9 °F 14.9 °F 30.30 in NE 3.0 mph 7.0 mph 84% 0.00 in
05:49 18.9 °F 15.1 °F 30.29 in NE 3.0 mph 7.0 mph 85% 0.00 in
05:54 19.0 °F 15.2 °F 30.28 in NE 3.0 mph 7.0 mph 85% 0.00 in
05:59 19.0 °F 15.2 °F 30.27 in ENE 3.0 mph 8.0 mph 85% 0.00 in
06:04 19.1 °F 15.3 °F 30.27 in ENE 3.0 mph 8.0 mph 85% 0.00 in
06:09 19.1 °F 15.3 °F 30.28 in ENE 3.0 mph 9.0 mph 85% 0.00 in
06:14 19.2 °F 15.2 °F 30.27 in ENE 3.0 mph 9.0 mph 84% 0.00 in
06:19 19.3 °F 15.3 °F 30.27 in ENE 3.0 mph 8.0 mph 84% 0.00 in
06:24 19.3 °F 15.3 °F 30.26 in ENE 3.0 mph 8.0 mph 84% 0.00 in
06:29 19.3 °F 15.0 °F 30.26 in ENE 3.0 mph 8.0 mph 83% 0.00 in
06:34 19.3 °F 15.0 °F 30.26 in ENE 2.0 mph 9.0 mph 83% 0.00 in
06:39 19.4 °F 15.1 °F 30.25 in East 5.0 mph 7.0 mph 83% 0.00 in
06:44 19.3 °F 15.0 °F 30.24 in NE 3.0 mph 8.0 mph 83% 0.00 in
06:49 19.3 °F 14.7 °F 30.25 in ENE 4.0 mph 7.0 mph 82% 0.00 in
06:54 19.4 °F 14.8 °F 30.25 in NE 2.0 mph 7.0 mph 82% 0.00 in
06:59 19.5 °F 14.9 °F 30.25 in ENE 3.0 mph 7.0 mph 82% 0.00 in
07:04 19.6 °F 15.0 °F 30.24 in ENE 4.0 mph 10.0 mph 82% 0.00 in
07:09 19.7 °F 14.8 °F 30.25 in ENE 4.0 mph 10.0 mph 81% 0.00 in
07:14 19.8 °F 14.9 °F 30.25 in ENE 3.0 mph 7.0 mph 81% 0.00 in
07:19 19.8 °F 14.9 °F 30.25 in ENE 3.0 mph 6.0 mph 81% 0.00 in
07:24 19.9 °F 15.0 °F 30.25 in ESE 2.0 mph 7.0 mph 81% 0.00 in
07:29 19.9 °F 15.0 °F 30.24 in NE 4.0 mph 7.0 mph 81% 0.00 in
07:34 19.8 °F 14.9 °F 30.24 in NE 1.0 mph 6.0 mph 81% 0.00 in
07:39 19.8 °F 15.2 °F 30.23 in ESE 1.0 mph 7.0 mph 82% 0.00 in
07:44 19.8 °F 15.2 °F 30.23 in East 2.0 mph 7.0 mph 82% 0.00 in
07:49 19.7 °F 15.4 °F 30.22 in ENE 3.0 mph 5.0 mph 83% 0.00 in
07:54 19.7 °F 15.4 °F 30.22 in ENE 3.0 mph 5.0 mph 83% 0.00 in
07:59 19.7 °F 15.6 °F 30.21 in ENE 5.0 mph 5.0 mph 84% 0.00 in
08:04 19.8 °F 15.7 °F 30.21 in ENE 3.0 mph 6.0 mph 84% 0.00 in
08:09 19.9 °F 15.8 °F 30.21 in ENE 2.0 mph 6.0 mph 84% 0.00 in
08:14 20.0 °F 16.2 °F 30.21 in NE 2.0 mph 5.0 mph 85% 0.00 in
08:19 20.2 °F 16.4 °F 30.21 in NE 2.0 mph 5.0 mph 85% 0.00 in
08:24 20.2 °F 16.4 °F 30.21 in NE 2.0 mph 5.0 mph 85% 0.00 in
08:29 20.3 °F 16.5 °F 30.20 in NE 3.0 mph 4.0 mph 85% 0.00 in
08:34 20.3 °F 16.8 °F 30.19 in NE 5.0 mph 5.0 mph 86% 0.00 in
08:39 20.4 °F 16.9 °F 30.19 in NE 3.0 mph 7.0 mph 86% 0.00 in
08:44 20.5 °F 17.0 °F 30.19 in NE 3.0 mph 6.0 mph 86% 0.00 in
08:49 20.6 °F 17.1 °F 30.19 in NE 3.0 mph 5.0 mph 86% 0.00 in
08:54 20.7 °F 17.2 °F 30.19 in NE 2.0 mph 6.0 mph 86% 0.00 in
08:59 20.8 °F 17.3 °F 30.18 in NE 3.0 mph 5.0 mph 86% 0.00 in
09:04 20.9 °F 17.4 °F 30.18 in NE 2.0 mph 5.0 mph 86% 0.00 in
09:09 21.0 °F 17.5 °F 30.18 in NE 3.0 mph 5.0 mph 86% 0.00 in
09:14 21.1 °F 17.6 °F 30.17 in NE 2.0 mph 5.0 mph 86% 0.00 in
09:19 21.1 °F 17.6 °F 30.17 in NE 2.0 mph 5.0 mph 86% 0.00 in
09:24 21.2 °F 17.7 °F 30.16 in NE 2.0 mph 5.0 mph 86% 0.00 in
09:29 21.2 °F 17.7 °F 30.16 in NE 2.0 mph 4.0 mph 86% 0.00 in
09:34 21.3 °F 17.8 °F 30.15 in NNE 3.0 mph 4.0 mph 86% 0.00 in
09:39 21.4 °F 18.1 °F 30.15 in NE 3.0 mph 5.0 mph 87% 0.00 in
09:44 21.4 °F 18.1 °F 30.15 in NNE 3.0 mph 5.0 mph 87% 0.00 in
09:49 21.5 °F 18.0 °F 30.14 in Calm   4.0 mph 86% 0.00 in
09:54 21.6 °F 18.1 °F 30.15 in NNE 2.0 mph 4.0 mph 86% 0.00 in
09:59 21.6 °F 18.1 °F 30.14 in NNE 3.0 mph 4.0 mph 86% 0.00 in
10:04 21.6 °F 18.1 °F 30.14 in NNE 2.0 mph 4.0 mph 86% 0.00 in
10:09 21.7 °F 18.2 °F 30.13 in NNE 3.0 mph 4.0 mph 86% 0.00 in
10:14 21.6 °F 18.1 °F 30.13 in NNE 2.0 mph 4.0 mph 86% 0.00 in
10:19 21.6 °F 18.1 °F 30.13 in NNE 3.0 mph 4.0 mph 86% 0.00 in
10:24 21.7 °F 18.2 °F 30.13 in NNE 2.0 mph 5.0 mph 86% 0.00 in
10:29 21.7 °F 18.2 °F 30.12 in NNE 2.0 mph 5.0 mph 86% 0.00 in
10:34 21.9 °F 18.4 °F 30.12 in NNE 2.0 mph 6.0 mph 86% 0.00 in
10:39 22.0 °F 18.5 °F 30.12 in NNE 2.0 mph 6.0 mph 86% 0.00 in
10:44 22.1 °F 18.6 °F 30.11 in NE 3.0 mph 6.0 mph 86% 0.00 in
10:49 22.2 °F 18.7 °F 30.11 in NE 3.0 mph 6.0 mph 86% 0.00 in
10:54 22.2 °F 18.7 °F 30.11 in NE 1.0 mph 4.0 mph 86% 0.00 in
10:59 22.4 °F 18.8 °F 30.11 in NE 3.0 mph 5.0 mph 86% 0.00 in
11:04 22.6 °F 19.0 °F 30.10 in NE 1.0 mph 5.0 mph 86% 0.00 in
11:09 22.6 °F 19.0 °F 30.10 in NE 3.0 mph 4.0 mph 86% 0.00 in
11:14 22.7 °F 19.1 °F 30.09 in NE 3.0 mph 4.0 mph 86% 0.00 in
11:19 22.8 °F 19.2 °F 30.09 in NE 2.0 mph 5.0 mph 86% 0.00 in
11:24 23.0 °F 19.2 °F 30.08 in NE 2.0 mph 5.0 mph 85% 0.00 in
11:29 23.0 °F 19.2 °F 30.08 in NE 2.0 mph 5.0 mph 85% 0.00 in
11:34 23.2 °F 19.4 °F 30.08 in NE 2.0 mph 5.0 mph 85% 0.00 in
11:39 23.2 °F 19.4 °F 30.07 in NE 3.0 mph 5.0 mph 85% 0.00 in
11:44 23.1 °F 19.3 °F 30.07 in NE 3.0 mph 5.0 mph 85% 0.00 in
11:49 23.3 °F 19.5 °F 30.06 in NE 2.0 mph 4.0 mph 85% 0.00 in
11:54 23.4 °F 19.6 °F 30.06 in NE 1.0 mph 3.0 mph 85% 0.00 in
11:59 23.5 °F 19.7 °F 30.07 in NE 1.0 mph 3.0 mph 85% 0.00 in
12:04 23.6 °F 19.8 °F 30.07 in NE 2.0 mph 3.0 mph 85% 0.00 in
12:09 23.7 °F 19.9 °F 30.07 in NE 3.0 mph 4.0 mph 85% 0.00 in
12:14 23.8 °F 19.9 °F 30.06 in Calm   3.0 mph 85% 0.00 in
12:19 24.1 °F 20.2 °F 30.06 in Calm   2.0 mph 85% 0.00 in
12:24 24.3 °F 20.4 °F 30.06 in NNE 1.0 mph 4.0 mph 85% 0.00 in
12:29 24.5 °F 20.6 °F 30.05 in NNE 1.0 mph 4.0 mph 85% 0.00 in
12:34 24.7 °F 20.6 °F 30.05 in NNE 1.0 mph 4.0 mph 84% 0.00 in
12:39 24.8 °F 20.7 °F 30.05 in NNE 2.0 mph 3.0 mph 84% 0.00 in
12:44 24.7 °F 20.6 °F 30.05 in NNE 2.0 mph 3.0 mph 84% 0.00 in
12:49 24.8 °F 20.7 °F 30.05 in Calm   2.0 mph 84% 0.00 in
12:54 24.9 °F 20.5 °F 30.04 in Calm   3.0 mph 83% 0.00 in
12:59 25.2 °F 20.8 °F 30.04 in Calm   3.0 mph 83% 0.00 in
13:04 25.6 °F 21.4 °F 30.03 in Calm     84% 0.00 in
13:09 25.8 °F 21.3 °F 30.03 in Calm     83% 0.00 in
13:14 26.0 °F 21.3 °F 30.03 in Calm     82% 0.00 in
13:19 26.1 °F 21.4 °F 30.03 in Calm   2.0 mph 82% 0.00 in
13:24 26.1 °F 21.4 °F 30.03 in NNE 1.0 mph 3.0 mph 82% 0.00 in
13:29 26.2 °F 21.2 °F 30.04 in NNE 2.0 mph 3.0 mph 81% 0.00 in
13:34 26.1 °F 21.4 °F 30.03 in NNE 2.0 mph 3.0 mph 82% 0.00 in
13:39 26.2 °F 21.5 °F 30.03 in North 2.0 mph 4.0 mph 82% 0.00 in
13:44 26.5 °F 21.7 °F 30.03 in North 2.0 mph 4.0 mph 82% 0.00 in
13:49 26.7 °F 21.9 °F 30.03 in NNW 2.0 mph 5.0 mph 82% 0.00 in
13:54 26.9 °F 22.1 °F 30.03 in NW 3.0 mph 5.0 mph 82% 0.00 in
13:59 27.0 °F 21.7 °F 30.03 in WNW 4.0 mph 7.0 mph 80% 0.00 in
14:04 26.9 °F 21.8 °F 30.03 in WNW 3.0 mph 7.0 mph 81% 0.00 in
14:09 26.9 °F 21.8 °F 30.04 in WNW 2.0 mph 6.0 mph 81% 0.01 in
14:14 27.0 °F 21.7 °F 30.04 in WNW 2.0 mph 7.0 mph 80% 0.01 in
14:19 26.7 °F 21.4 °F 30.04 in WNW 5.0 mph 8.0 mph 80% 0.01 in
14:24 26.5 °F 21.2 °F 30.05 in WSW 7.0 mph 11.0 mph 80% 0.01 in
14:29 26.3 °F 21.0 °F 30.05 in West 4.0 mph 9.0 mph 80% 0.01 in
14:34 26.6 °F 21.3 °F 30.05 in WNW 5.0 mph 9.0 mph 80% 0.01 in
14:39 26.6 °F 21.0 °F 30.05 in WNW 5.0 mph 9.0 mph 79% 0.01 in
14:44 26.6 °F 21.0 °F 30.05 in WNW 5.0 mph 9.0 mph 79% 0.01 in
14:49 26.9 °F 21.6 °F 30.05 in WNW 4.0 mph 8.0 mph 80% 0.01 in
14:54 27.3 °F 21.6 °F 30.06 in WNW 2.0 mph 6.0 mph 79% 0.01 in
14:59 27.4 °F 21.4 °F 30.06 in WNW 3.0 mph 7.0 mph 78% 0.01 in
15:04 27.2 °F 21.2 °F 30.06 in WNW 4.0 mph 9.0 mph 78% 0.01 in
15:09 26.9 °F 21.0 °F 30.07 in WNW 4.0 mph 9.0 mph 78% 0.00 in
15:14 26.6 °F 21.0 °F 30.06 in WSW 6.0 mph 10.0 mph 79% 0.00 in
15:19 26.2 °F 20.6 °F 30.07 in West 9.0 mph 10.0 mph 79% 0.00 in
15:24 25.9 °F 20.9 °F 30.08 in WNW 6.0 mph 12.0 mph 81% 0.00 in
15:29 25.6 °F 20.9 °F 30.08 in WNW 5.0 mph 10.0 mph 82% 0.00 in
15:34 25.5 °F 20.8 °F 30.08 in WNW 4.0 mph 10.0 mph 82% 0.00 in
15:39 25.0 °F 20.3 °F 30.09 in WNW 6.0 mph 12.0 mph 82% 0.00 in
15:44 24.7 °F 20.3 °F 30.10 in NNW 2.0 mph 11.0 mph 83% 0.00 in
15:49 24.4 °F 20.0 °F 30.10 in NW 6.0 mph 12.0 mph 83% 0.00 in
15:54 24.3 °F 20.2 °F 30.10 in NW 4.0 mph 12.0 mph 84% 0.00 in
15:59 24.2 °F 20.1 °F 30.10 in WNW 6.0 mph 10.0 mph 84% 0.00 in
16:04 24.0 °F 19.9 °F 30.10 in WNW 3.0 mph 10.0 mph 84% 0.00 in
16:09 24.0 °F 19.9 °F 30.10 in West 4.0 mph 7.0 mph 84% 0.00 in
16:14 24.1 °F 20.0 °F 30.11 in WNW 4.0 mph 10.0 mph 84% 0.00 in
16:20 24.1 °F 20.0 °F 30.11 in WNW 5.0 mph 11.0 mph 84% 0.00 in
16:25 24.0 °F 19.9 °F 30.11 in WNW 6.0 mph 11.0 mph 84% 0.00 in
16:34 23.8 °F 19.4 °F 30.12 in West 11.0 mph 11.0 mph 83% 0.00 in
16:39 23.7 °F 19.3 °F 30.12 in NNW 4.0 mph 12.0 mph 83% 0.00 in
16:44 23.6 °F 19.2 °F 30.13 in WNW 5.0 mph 12.0 mph 83% 0.00 in
16:49 23.5 °F 18.8 °F 30.13 in WNW 2.0 mph 11.0 mph 82% 0.00 in
16:54 23.5 °F 18.8 °F 30.14 in NW 5.0 mph 11.0 mph 82% 0.00 in
16:59 23.4 °F 18.7 °F 30.14 in NW 5.0 mph 12.0 mph 82% 0.00 in
17:04 23.2 °F 18.5 °F 30.14 in WNW 6.0 mph 12.0 mph 82% 0.00 in
17:09 23.2 °F 18.5 °F 30.15 in NNW 3.0 mph 10.0 mph 82% 0.00 in
17:14 23.1 °F 18.4 °F 30.15 in WNW 5.0 mph 11.0 mph 82% 0.00 in
17:19 23.1 °F 18.4 °F 30.16 in WNW 5.0 mph 11.0 mph 82% 0.00 in
17:24 23.1 °F 18.4 °F 30.15 in WNW 3.0 mph 8.0 mph 82% 0.00 in
17:29 23.0 °F 18.3 °F 30.16 in NNW 8.0 mph 8.0 mph 82% 0.00 in
17:34 22.9 °F 18.2 °F 30.16 in WNW 3.0 mph 8.0 mph 82% 0.00 in
17:39 22.7 °F 17.7 °F 30.16 in West 3.0 mph 6.0 mph 81% 0.00 in
17:44 22.5 °F 17.5 °F 30.17 in West 5.0 mph 7.0 mph 81% 0.00 in
17:49 22.5 °F 17.5 °F 30.17 in WNW 3.0 mph 7.0 mph 81% 0.00 in
17:54 22.5 °F 17.5 °F 30.17 in WNW 3.0 mph 6.0 mph 81% 0.00 in
17:59 22.4 °F 17.7 °F 30.18 in NW 3.0 mph 6.0 mph 82% 0.00 in
18:04 22.4 °F 17.7 °F 30.18 in WNW 3.0 mph 6.0 mph 82% 0.00 in
18:09 22.4 °F 17.7 °F 30.19 in WNW 3.0 mph 7.0 mph 82% 0.00 in
18:14 22.5 °F 17.8 °F 30.19 in WNW 3.0 mph 7.0 mph 82% 0.00 in
18:19 22.6 °F 17.9 °F 30.20 in West 4.0 mph 6.0 mph 82% 0.00 in
18:24 22.6 °F 17.9 °F 30.20 in WNW 4.0 mph 6.0 mph 82% 0.00 in
18:29 22.7 °F 18.3 °F 30.20 in WNW 3.0 mph 5.0 mph 83% 0.00 in
18:34 22.7 °F 18.3 °F 30.21 in WNW 3.0 mph 7.0 mph 83% 0.00 in
18:39 22.8 °F 18.4 °F 30.21 in WNW 1.0 mph 6.0 mph 83% 0.00 in
18:44 22.8 °F 18.4 °F 30.21 in West 5.0 mph 7.0 mph 83% 0.00 in
18:49 22.8 °F 18.7 °F 30.22 in West 2.0 mph 6.0 mph 84% 0.00 in
18:54 22.7 °F 18.6 °F 30.22 in West 3.0 mph 7.0 mph 84% 0.00 in
18:59 22.8 °F 18.7 °F 30.22 in West 3.0 mph 8.0 mph 84% 0.00 in
19:04 22.7 °F 18.6 °F 30.22 in West 4.0 mph 8.0 mph 84% 0.00 in
19:09 22.7 °F 18.6 °F 30.23 in WSW 4.0 mph 7.0 mph 84% 0.00 in
19:14 22.5 °F 18.4 °F 30.23 in West 4.0 mph 7.0 mph 84% 0.00 in
19:19 22.2 °F 18.1 °F 30.23 in WNW 6.0 mph 7.0 mph 84% 0.00 in
19:24 21.8 °F 17.7 °F 30.24 in West 4.0 mph 6.0 mph 84% 0.00 in
19:29 21.4 °F 17.3 °F 30.24 in West 3.0 mph 6.0 mph 84% 0.00 in
19:34 21.4 °F 17.6 °F 30.24 in West 3.0 mph 7.0 mph 85% 0.00 in
19:39 21.4 °F 17.6 °F 30.25 in West 4.0 mph 11.0 mph 85% 0.00 in
19:44 21.4 °F 17.3 °F 30.25 in West 4.0 mph 10.0 mph 84% 0.00 in
19:49 21.1 °F 17.0 °F 30.25 in West 8.0 mph 12.0 mph 84% 0.00 in
19:54 20.9 °F 16.5 °F 30.25 in WNW 4.0 mph 10.0 mph 83% 0.00 in
19:59 20.8 °F 16.5 °F 30.25 in West 5.0 mph 10.0 mph 83% 0.00 in
20:04 20.8 °F 16.2 °F 30.25 in West 5.0 mph 9.0 mph 82% 0.00 in
20:09 20.7 °F 15.8 °F 30.26 in West 5.0 mph 10.0 mph 81% 0.00 in
20:14 20.4 °F 15.2 °F 30.26 in West 6.0 mph 10.0 mph 80% 0.00 in
20:19 20.2 °F 15.0 °F 30.26 in West 11.0 mph 11.0 mph 80% 0.00 in
20:24 19.8 °F 14.0 °F 30.27 in West 7.0 mph 12.0 mph 78% 0.00 in
20:29 19.5 °F 13.8 °F 30.27 in WNW 6.0 mph 8.0 mph 78% 0.00 in
20:34 19.4 °F 13.7 °F 30.27 in WNW 5.0 mph 9.0 mph 78% 0.00 in
20:39 19.4 °F 13.7 °F 30.28 in West 5.0 mph 10.0 mph 78% 0.00 in
20:44 19.5 °F 13.8 °F 30.28 in West 6.0 mph 14.0 mph 78% 0.00 in
20:49 19.3 °F 13.3 °F 30.28 in West 6.0 mph 12.0 mph 77% 0.00 in
20:54 19.0 °F 13.0 °F 30.28 in WSW 5.0 mph 15.0 mph 77% 0.00 in
20:59 18.8 °F 12.8 °F 30.28 in West 5.0 mph 12.0 mph 77% 0.00 in
21:04 18.6 °F 12.6 °F 30.29 in WSW 3.0 mph 12.0 mph 77% 0.00 in
21:09 18.5 °F 12.5 °F 30.29 in West 7.0 mph 13.0 mph 77% 0.00 in
21:14 18.4 °F 12.4 °F 30.29 in West 7.0 mph 13.0 mph 77% 0.00 in
21:19 18.4 °F 12.4 °F 30.29 in West 7.0 mph 12.0 mph 77% 0.00 in
21:24 18.3 °F 12.3 °F 30.29 in West 6.0 mph 14.0 mph 77% 0.00 in
21:29 18.0 °F 12.0 °F 30.30 in West 6.0 mph 14.0 mph 77% 0.00 in
21:34 17.7 °F 11.7 °F 30.30 in West 3.0 mph 9.0 mph 77% 0.00 in
21:39 17.4 °F 11.4 °F 30.30 in WNW 4.0 mph 9.0 mph 77% 0.00 in
21:44 17.1 °F 11.1 °F 30.31 in SW 4.0 mph 8.0 mph 77% 0.00 in
21:49 16.8 °F 11.1 °F 30.31 in WSW 3.0 mph 7.0 mph 78% 0.00 in
21:54 16.6 °F 10.9 °F 30.31 in West 3.0 mph 6.0 mph 78% 0.00 in
21:59 16.4 °F 10.7 °F 30.31 in WNW 7.0 mph 9.0 mph 78% 0.00 in
22:04 16.2 °F 10.5 °F 30.31 in NW 6.0 mph 8.0 mph 78% 0.00 in
22:09 16.0 °F 10.3 °F 30.31 in West 2.0 mph 7.0 mph 78% 0.00 in
22:14 15.8 °F 10.4 °F 30.32 in West 3.0 mph 8.0 mph 79% 0.00 in
22:19 15.7 °F 10.3 °F 30.32 in West 3.0 mph 8.0 mph 79% 0.00 in
22:24 15.6 °F 10.2 °F 30.32 in West 3.0 mph 7.0 mph 79% 0.00 in
22:29 15.6 °F 10.2 °F 30.32 in WSW 4.0 mph 8.0 mph 79% 0.00 in
22:34 15.5 °F 10.1 °F 30.33 in WSW 4.0 mph 8.0 mph 79% 0.00 in
22:39 14.7 °F 9.1 °F 30.33 in SSW 4.0 mph 6.0 mph 78% 0.00 in
22:44 13.6 °F 8.0 °F 30.34 in SSW 1.0 mph 5.0 mph 78% 0.00 in
22:49 12.4 °F 6.8 °F 30.34 in SSW 3.0 mph 5.0 mph 78% 0.00 in
22:54 11.2 °F 6.0 °F 30.34 in SSW 3.0 mph 7.0 mph 79% 0.00 in
22:59 10.4 °F 5.2 °F 30.34 in SSW 2.0 mph 4.0 mph 79% 0.00 in
23:04 10.0 °F 5.1 °F 30.34 in SSW 4.0 mph 6.0 mph 80% 0.00 in
23:09 9.7 °F 4.8 °F 30.35 in SSW 2.0 mph 6.0 mph 80% 0.00 in
23:14 9.5 °F 4.8 °F 30.35 in SW 3.0 mph 5.0 mph 81% 0.00 in
23:19 9.5 °F 4.8 °F 30.35 in SW 3.0 mph 5.0 mph 81% 0.00 in
23:24 9.6 °F 5.2 °F 30.35 in SW 2.0 mph 5.0 mph 82% 0.00 in
23:29 9.6 °F 5.2 °F 30.35 in SW 2.0 mph 5.0 mph 82% 0.00 in
23:34 9.6 °F 5.5 °F 30.35 in SSW 2.0 mph 5.0 mph 83% 0.00 in
23:39 9.7 °F 5.6 °F 30.35 in SSW 3.0 mph 5.0 mph 83% 0.00 in
23:44 9.7 °F 5.6 °F 30.35 in SSW 3.0 mph 6.0 mph 83% 0.00 in
23:49 9.7 °F 5.6 °F 30.35 in SSW 4.0 mph 5.0 mph 83% 0.00 in
23:54 9.6 °F 5.5 °F 30.35 in SSW 3.0 mph 5.0 mph 83% 0.00 in
23:59 9.6 °F 5.5 °F 30.35 in SSW 3.0 mph 6.0 mph 83% 0.00 in
Buffalo, New York, USA
Compliments of Weather Underground - 2.5 mb